owner,sensor,date,latitude,longitude,vertical_datum,sea_water_practical_salinity,qcFlag 
LUMCON,ioos:station:LUMCON:101:1,2011-05-01T01:00:00Z,29.2533,-90.6633,-9999.0,10.39,1111122 
LUMCON,ioos:station:LUMCON:101:1,2011-05-01T02:00:00Z,29.2533,-90.6633,-9999.0,10.16,1111122 
LUMCON,ioos:station:LUMCON:101:1,2011-05-01T03:00:00Z,29.2533,-90.6633,-9999.0,10.09,1111122 
LUMCON,ioos:station:LUMCON:101:1,2011-05-01T04:00:00Z,29.2533,-90.6633,-9999.0,11.36,1111122 
LUMCON,ioos:station:LUMCON:101:1,2011-05-01T05:00:00Z,29.2533,-90.6633,-9999.0,12.12,1111122 
LUMCON,ioos:station:LUMCON:101:1,2011-05-01T06:00:00Z,29.2533,-90.6633,-9999.0,11.67,1111122 
LUMCON,ioos:station:LUMCON:101:1,2011-05-01T07:00:00Z,29.2533,-90.6633,-9999.0,11.86,1111122 
LUMCON,ioos:station:LUMCON:101:1,2011-05-01T08:00:00Z,29.2533,-90.6633,-9999.0,12.22,1111122 
LUMCON,ioos:station:LUMCON:101:1,2011-05-01T09:00:00Z,29.2533,-90.6633,-9999.0,12.48,1111122 
LUMCON,ioos:station:LUMCON:101:1,2011-05-01T10:00:00Z,29.2533,-90.6633,-9999.0,12.78,1111122 
LUMCON,ioos:station:LUMCON:101:1,2011-05-01T11:00:00Z,29.2533,-90.6633,-9999.0,13.05,1111122 
LUMCON,ioos:station:LUMCON:101:1,2011-05-01T12:00:00Z,29.2533,-90.6633,-9999.0,13.3,1111122 
LUMCON,ioos:station:LUMCON:101:1,2011-05-01T13:00:00Z,29.2533,-90.6633,-9999.0,13.57,1111122 
LUMCON,ioos:station:LUMCON:101:1,2011-05-01T14:00:00Z,29.2533,-90.6633,-9999.0,14.08,1111122 
LUMCON,ioos:station:LUMCON:101:1,2011-05-01T15:00:00Z,29.2533,-90.6633,-9999.0,14.32,1111122 
LUMCON,ioos:station:LUMCON:101:1,2011-05-01T16:00:00Z,29.2533,-90.6633,-9999.0,14.35,1111122 
LUMCON,ioos:station:LUMCON:101:1,2011-05-01T17:00:00Z,29.2533,-90.6633,-9999.0,14.27,1111122 
LUMCON,ioos:station:LUMCON:101:1,2011-05-01T18:00:00Z,29.2533,-90.6633,-9999.0,14.13,1111122 
LUMCON,ioos:station:LUMCON:101:1,2011-05-01T19:00:00Z,29.2533,-90.6633,-9999.0,13.81,1111122 
LUMCON,ioos:station:LUMCON:101:1,2011-05-01T20:00:00Z,29.2533,-90.6633,-9999.0,13.58,1111122 
LUMCON,ioos:station:LUMCON:101:1,2011-05-01T21:00:00Z,29.2533,-90.6633,-9999.0,13.25,1111122 
LUMCON,ioos:station:LUMCON:101:1,2011-05-01T22:00:00Z,29.2533,-90.6633,-9999.0,12.82,1111122 
LUMCON,ioos:station:LUMCON:101:1,2011-05-01T23:00:00Z,29.2533,-90.6633,-9999.0,12.3,1111122 
LUMCON,ioos:station:LUMCON:101:1,2011-05-01T24:00:00Z,29.2533,-90.6633,-9999.0,11.86,1111122 
LUMCON,ioos:station:LUMCON:101:1,2011-05-02T01:00:00Z,29.2533,-90.6633,-9999.0,11.4,1111122 
LUMCON,ioos:station:LUMCON:101:1,2011-05-02T02:00:00Z,29.2533,-90.6633,-9999.0,11.02,1111122 
LUMCON,ioos:station:LUMCON:101:1,2011-05-02T03:00:00Z,29.2533,-90.6633,-9999.0,10.73,1111122 
LUMCON,ioos:station:LUMCON:101:1,2011-05-02T04:00:00Z,29.2533,-90.6633,-9999.0,10.41,1111122 
LUMCON,ioos:station:LUMCON:101:1,2011-05-02T05:00:00Z,29.2533,-90.6633,-9999.0,10.15,1111122 
LUMCON,ioos:station:LUMCON:101:1,2011-05-02T06:00:00Z,29.2533,-90.6633,-9999.0,9.98,1111122 
LUMCON,ioos:station:LUMCON:101:1,2011-05-02T07:00:00Z,29.2533,-90.6633,-9999.0,10.56,1111122 
LUMCON,ioos:station:LUMCON:101:1,2011-05-02T08:00:00Z,29.2533,-90.6633,-9999.0,11.54,1111122 
LUMCON,ioos:station:LUMCON:101:1,2011-05-02T09:00:00Z,29.2533,-90.6633,-9999.0,11.49,1111122 
LUMCON,ioos:station:LUMCON:101:1,2011-05-02T10:00:00Z,29.2533,-90.6633,-9999.0,10.89,1111122 
LUMCON,ioos:station:LUMCON:101:1,2011-05-02T11:00:00Z,29.2533,-90.6633,-9999.0,10.82,1111122 
LUMCON,ioos:station:LUMCON:101:1,2011-05-02T12:00:00Z,29.2533,-90.6633,-9999.0,11.02,1111122 
LUMCON,ioos:station:LUMCON:101:1,2011-05-02T13:00:00Z,29.2533,-90.6633,-9999.0,10.98,1111122 
LUMCON,ioos:station:LUMCON:101:1,2011-05-02T14:00:00Z,29.2533,-90.6633,-9999.0,10.88,1111122 
LUMCON,ioos:station:LUMCON:101:1,2011-05-02T15:00:00Z,29.2533,-90.6633,-9999.0,10.77,1111122 
LUMCON,ioos:station:LUMCON:101:1,2011-05-02T16:00:00Z,29.2533,-90.6633,-9999.0,9.96,1111122 
LUMCON,ioos:station:LUMCON:101:1,2011-05-02T17:00:00Z,29.2533,-90.6633,-9999.0,10.05,1111122 
LUMCON,ioos:station:LUMCON:101:1,2011-05-02T18:00:00Z,29.2533,-90.6633,-9999.0,9.92,1111122 
LUMCON,ioos:station:LUMCON:101:1,2011-05-02T19:00:00Z,29.2533,-90.6633,-9999.0,9.39,1111122 
LUMCON,ioos:station:LUMCON:101:1,2011-05-02T20:00:00Z,29.2533,-90.6633,-9999.0,11.2,1111122 
LUMCON,ioos:station:LUMCON:101:1,2011-05-02T21:00:00Z,29.2533,-90.6633,-9999.0,11.33,1111122 
LUMCON,ioos:station:LUMCON:101:1,2011-05-02T22:00:00Z,29.2533,-90.6633,-9999.0,11.4,1111122 
LUMCON,ioos:station:LUMCON:101:1,2011-05-02T23:00:00Z,29.2533,-90.6633,-9999.0,11.35,1111122 
LUMCON,ioos:station:LUMCON:101:1,2011-05-02T24:00:00Z,29.2533,-90.6633,-9999.0,11.27,1111122 
LUMCON,ioos:station:LUMCON:101:1,2011-05-03T01:00:00Z,29.2533,-90.6633,-9999.0,11.15,1111122 
LUMCON,ioos:station:LUMCON:101:1,2011-05-03T02:00:00Z,29.2533,-90.6633,-9999.0,11.13,1111122 
LUMCON,ioos:station:LUMCON:101:1,2011-05-03T03:00:00Z,29.2533,-90.6633,-9999.0,11.04,1111122 
LUMCON,ioos:station:LUMCON:101:1,2011-05-03T04:00:00Z,29.2533,-90.6633,-9999.0,10.94,1111122 
LUMCON,ioos:station:LUMCON:101:1,2011-05-03T05:00:00Z,29.2533,-90.6633,-9999.0,10.88,1111122 
LUMCON,ioos:station:LUMCON:101:1,2011-05-03T06:00:00Z,29.2533,-90.6633,-9999.0,10.85,1111122 
LUMCON,ioos:station:LUMCON:101:1,2011-05-03T07:00:00Z,29.2533,-90.6633,-9999.0,10.75,1111122 
LUMCON,ioos:station:LUMCON:101:1,2011-05-03T08:00:00Z,29.2533,-90.6633,-9999.0,10.72,1111122 
LUMCON,ioos:station:LUMCON:101:1,2011-05-03T09:00:00Z,29.2533,-90.6633,-9999.0,10.71,1111122 
LUMCON,ioos:station:LUMCON:101:1,2011-05-03T10:00:00Z,29.2533,-90.6633,-9999.0,10.32,1111122 
LUMCON,ioos:station:LUMCON:101:1,2011-05-03T11:00:00Z,29.2533,-90.6633,-9999.0,8.82,1111122 
LUMCON,ioos:station:LUMCON:101:1,2011-05-03T12:00:00Z,29.2533,-90.6633,-9999.0,7.03,1111122 
LUMCON,ioos:station:LUMCON:101:1,2011-05-03T13:00:00Z,29.2533,-90.6633,-9999.0,5.567,1111122 
LUMCON,ioos:station:LUMCON:101:1,2011-05-03T14:00:00Z,29.2533,-90.6633,-9999.0,4.777,1111122 
LUMCON,ioos:station:LUMCON:101:1,2011-05-03T15:00:00Z,29.2533,-90.6633,-9999.0,4.695,1111122 
LUMCON,ioos:station:LUMCON:101:1,2011-05-03T16:00:00Z,29.2533,-90.6633,-9999.0,5.318,1111122 
LUMCON,ioos:station:LUMCON:101:1,2011-05-03T17:00:00Z,29.2533,-90.6633,-9999.0,6.404,1111122 
LUMCON,ioos:station:LUMCON:101:1,2011-05-03T18:00:00Z,29.2533,-90.6633,-9999.0,7.85,1111122 
LUMCON,ioos:station:LUMCON:101:1,2011-05-03T19:00:00Z,29.2533,-90.6633,-9999.0,11.68,1111122 
LUMCON,ioos:station:LUMCON:101:1,2011-05-03T20:00:00Z,29.2533,-90.6633,-9999.0,13.68,1111122 
LUMCON,ioos:station:LUMCON:101:1,2011-05-03T21:00:00Z,29.2533,-90.6633,-9999.0,13.62,1111122 
LUMCON,ioos:station:LUMCON:101:1,2011-05-03T22:00:00Z,29.2533,-90.6633,-9999.0,11.59,1111122 
LUMCON,ioos:station:LUMCON:101:1,2011-05-03T23:00:00Z,29.2533,-90.6633,-9999.0,10.52,1111122 
LUMCON,ioos:station:LUMCON:101:1,2011-05-03T24:00:00Z,29.2533,-90.6633,-9999.0,9.11,1111122 
LUMCON,ioos:station:LUMCON:101:1,2011-05-04T01:00:00Z,29.2533,-90.6633,-9999.0,7.88,1111122 
LUMCON,ioos:station:LUMCON:101:1,2011-05-04T02:00:00Z,29.2533,-90.6633,-9999.0,6.858,1111122 
LUMCON,ioos:station:LUMCON:101:1,2011-05-04T03:00:00Z,29.2533,-90.6633,-9999.0,6.409,1111122 
LUMCON,ioos:station:LUMCON:101:1,2011-05-04T04:00:00Z,29.2533,-90.6633,-9999.0,6.306,1111122 
LUMCON,ioos:station:LUMCON:101:1,2011-05-04T05:00:00Z,29.2533,-90.6633,-9999.0,6.455,1111122 
LUMCON,ioos:station:LUMCON:101:1,2011-05-04T06:00:00Z,29.2533,-90.6633,-9999.0,6.641,1111122 
LUMCON,ioos:station:LUMCON:101:1,2011-05-04T07:00:00Z,29.2533,-90.6633,-9999.0,6.762,1111122 
LUMCON,ioos:station:LUMCON:101:1,2011-05-04T08:00:00Z,29.2533,-90.6633,-9999.0,7.34,1111122 
LUMCON,ioos:station:LUMCON:101:1,2011-05-04T09:00:00Z,29.2533,-90.6633,-9999.0,7.73,1111122 
LUMCON,ioos:station:LUMCON:101:1,2011-05-04T10:00:00Z,29.2533,-90.6633,-9999.0,8.24,1111122 
LUMCON,ioos:station:LUMCON:101:1,2011-05-04T11:00:00Z,29.2533,-90.6633,-9999.0,8.69,1111122 
LUMCON,ioos:station:LUMCON:101:1,2011-05-04T12:00:00Z,29.2533,-90.6633,-9999.0,8.89,1111122 
LUMCON,ioos:station:LUMCON:101:1,2011-05-04T13:00:00Z,29.2533,-90.6633,-9999.0,9.05,1111122 
LUMCON,ioos:station:LUMCON:101:1,2011-05-04T14:00:00Z,29.2533,-90.6633,-9999.0,9.47,1111122 
LUMCON,ioos:station:LUMCON:101:1,2011-05-04T15:00:00Z,29.2533,-90.6633,-9999.0,10.03,1111122 
LUMCON,ioos:station:LUMCON:101:1,2011-05-04T16:00:00Z,29.2533,-90.6633,-9999.0,10.56,1111122 
LUMCON,ioos:station:LUMCON:101:1,2011-05-04T17:00:00Z,29.2533,-90.6633,-9999.0,11.36,1111122 
LUMCON,ioos:station:LUMCON:101:1,2011-05-04T18:00:00Z,29.2533,-90.6633,-9999.0,12.44,1111122 
LUMCON,ioos:station:LUMCON:101:1,2011-05-04T19:00:00Z,29.2533,-90.6633,-9999.0,13.33,1111122 
LUMCON,ioos:station:LUMCON:101:1,2011-05-04T20:00:00Z,29.2533,-90.6633,-9999.0,13.68,1111122 
LUMCON,ioos:station:LUMCON:101:1,2011-05-04T21:00:00Z,29.2533,-90.6633,-9999.0,13.66,1111122 
LUMCON,ioos:station:LUMCON:101:1,2011-05-04T22:00:00Z,29.2533,-90.6633,-9999.0,13.11,1111122 
LUMCON,ioos:station:LUMCON:101:1,2011-05-04T23:00:00Z,29.2533,-90.6633,-9999.0,12.42,1111122 
LUMCON,ioos:station:LUMCON:101:1,2011-05-04T24:00:00Z,29.2533,-90.6633,-9999.0,11.67,1111122 
LUMCON,ioos:station:LUMCON:101:1,2011-05-05T01:00:00Z,29.2533,-90.6633,-9999.0,10.7,1111122 
LUMCON,ioos:station:LUMCON:101:1,2011-05-05T02:00:00Z,29.2533,-90.6633,-9999.0,9.83,1111122 
LUMCON,ioos:station:LUMCON:101:1,2011-05-05T03:00:00Z,29.2533,-90.6633,-9999.0,9.3,1111122 
LUMCON,ioos:station:LUMCON:101:1,2011-05-05T04:00:00Z,29.2533,-90.6633,-9999.0,9.0,1111122 
LUMCON,ioos:station:LUMCON:101:1,2011-05-05T05:00:00Z,29.2533,-90.6633,-9999.0,8.83,1111122 
LUMCON,ioos:station:LUMCON:101:1,2011-05-05T06:00:00Z,29.2533,-90.6633,-9999.0,8.75,1111122 
LUMCON,ioos:station:LUMCON:101:1,2011-05-05T07:00:00Z,29.2533,-90.6633,-9999.0,8.71,1111122 
LUMCON,ioos:station:LUMCON:101:1,2011-05-05T08:00:00Z,29.2533,-90.6633,-9999.0,8.62,1111122 
LUMCON,ioos:station:LUMCON:101:1,2011-05-05T09:00:00Z,29.2533,-90.6633,-9999.0,8.65,1111122 
LUMCON,ioos:station:LUMCON:101:1,2011-05-05T10:00:00Z,29.2533,-90.6633,-9999.0,9.45,1111122 
LUMCON,ioos:station:LUMCON:101:1,2011-05-05T11:00:00Z,29.2533,-90.6633,-9999.0,8.85,1111122 
LUMCON,ioos:station:LUMCON:101:1,2011-05-05T12:00:00Z,29.2533,-90.6633,-9999.0,8.99,1111122 
LUMCON,ioos:station:LUMCON:101:1,2011-05-05T13:00:00Z,29.2533,-90.6633,-9999.0,9.22,1111122 
LUMCON,ioos:station:LUMCON:101:1,2011-05-05T14:00:00Z,29.2533,-90.6633,-9999.0,9.22,1111122 
LUMCON,ioos:station:LUMCON:101:1,2011-05-05T15:00:00Z,29.2533,-90.6633,-9999.0,9.32,1111122 
LUMCON,ioos:station:LUMCON:101:1,2011-05-05T16:00:00Z,29.2533,-90.6633,-9999.0,9.56,1111122 
LUMCON,ioos:station:LUMCON:101:1,2011-05-05T17:00:00Z,29.2533,-90.6633,-9999.0,9.91,1111122 
LUMCON,ioos:station:LUMCON:101:1,2011-05-05T18:00:00Z,29.2533,-90.6633,-9999.0,10.2,1111122 
LUMCON,ioos:station:LUMCON:101:1,2011-05-05T19:00:00Z,29.2533,-90.6633,-9999.0,10.55,1111122 
LUMCON,ioos:station:LUMCON:101:1,2011-05-05T20:00:00Z,29.2533,-90.6633,-9999.0,10.59,1111122 
LUMCON,ioos:station:LUMCON:101:1,2011-05-05T21:00:00Z,29.2533,-90.6633,-9999.0,10.33,1111122 
LUMCON,ioos:station:LUMCON:101:1,2011-05-05T22:00:00Z,29.2533,-90.6633,-9999.0,10.05,1111122 
LUMCON,ioos:station:LUMCON:101:1,2011-05-05T23:00:00Z,29.2533,-90.6633,-9999.0,9.91,1111122 
LUMCON,ioos:station:LUMCON:101:1,2011-05-05T24:00:00Z,29.2533,-90.6633,-9999.0,9.83,1111122 
LUMCON,ioos:station:LUMCON:101:1,2011-05-06T01:00:00Z,29.2533,-90.6633,-9999.0,9.6,1111122 
LUMCON,ioos:station:LUMCON:101:1,2011-05-06T02:00:00Z,29.2533,-90.6633,-9999.0,9.37,1111122 
LUMCON,ioos:station:LUMCON:101:1,2011-05-06T03:00:00Z,29.2533,-90.6633,-9999.0,9.27,1111122 
LUMCON,ioos:station:LUMCON:101:1,2011-05-06T04:00:00Z,29.2533,-90.6633,-9999.0,9.18,1111122 
LUMCON,ioos:station:LUMCON:101:1,2011-05-06T05:00:00Z,29.2533,-90.6633,-9999.0,9.11,1111122 
LUMCON,ioos:station:LUMCON:101:1,2011-05-06T06:00:00Z,29.2533,-90.6633,-9999.0,9.08,1111122 
LUMCON,ioos:station:LUMCON:101:1,2011-05-06T07:00:00Z,29.2533,-90.6633,-9999.0,9.08,1111122 
LUMCON,ioos:station:LUMCON:101:1,2011-05-06T08:00:00Z,29.2533,-90.6633,-9999.0,9.07,1111122 
LUMCON,ioos:station:LUMCON:101:1,2011-05-06T09:00:00Z,29.2533,-90.6633,-9999.0,9.06,1111122 
LUMCON,ioos:station:LUMCON:101:1,2011-05-06T10:00:00Z,29.2533,-90.6633,-9999.0,8.78,1111122 
LUMCON,ioos:station:LUMCON:101:1,2011-05-06T11:00:00Z,29.2533,-90.6633,-9999.0,8.55,1111122 
LUMCON,ioos:station:LUMCON:101:1,2011-05-06T12:00:00Z,29.2533,-90.6633,-9999.0,8.96,1111122 
LUMCON,ioos:station:LUMCON:101:1,2011-05-06T13:00:00Z,29.2533,-90.6633,-9999.0,8.9,1111122 
LUMCON,ioos:station:LUMCON:101:1,2011-05-06T14:00:00Z,29.2533,-90.6633,-9999.0,8.94,1111122 
LUMCON,ioos:station:LUMCON:101:1,2011-05-06T15:00:00Z,29.2533,-90.6633,-9999.0,9.12,1111122 
LUMCON,ioos:station:LUMCON:101:1,2011-05-06T16:00:00Z,29.2533,-90.6633,-9999.0,8.98,1111122 
LUMCON,ioos:station:LUMCON:101:1,2011-05-06T17:00:00Z,29.2533,-90.6633,-9999.0,8.75,1111122 
LUMCON,ioos:station:LUMCON:101:1,2011-05-06T18:00:00Z,29.2533,-90.6633,-9999.0,8.88,1111122 
LUMCON,ioos:station:LUMCON:101:1,2011-05-06T19:00:00Z,29.2533,-90.6633,-9999.0,9.21,1111122 
LUMCON,ioos:station:LUMCON:101:1,2011-05-06T20:00:00Z,29.2533,-90.6633,-9999.0,9.51,1111122 
LUMCON,ioos:station:LUMCON:101:1,2011-05-06T21:00:00Z,29.2533,-90.6633,-9999.0,10.02,1111122 
LUMCON,ioos:station:LUMCON:101:1,2011-05-06T22:00:00Z,29.2533,-90.6633,-9999.0,9.91,1111122 
LUMCON,ioos:station:LUMCON:101:1,2011-05-06T23:00:00Z,29.2533,-90.6633,-9999.0,9.74,1111122 
LUMCON,ioos:station:LUMCON:101:1,2011-05-06T24:00:00Z,29.2533,-90.6633,-9999.0,9.38,1111122 
LUMCON,ioos:station:LUMCON:101:1,2011-05-07T01:00:00Z,29.2533,-90.6633,-9999.0,9.11,1111122 
LUMCON,ioos:station:LUMCON:101:1,2011-05-07T02:00:00Z,29.2533,-90.6633,-9999.0,8.91,1111122 
LUMCON,ioos:station:LUMCON:101:1,2011-05-07T03:00:00Z,29.2533,-90.6633,-9999.0,8.94,1111122 
LUMCON,ioos:station:LUMCON:101:1,2011-05-07T04:00:00Z,29.2533,-90.6633,-9999.0,9.05,1111122 
LUMCON,ioos:station:LUMCON:101:1,2011-05-07T05:00:00Z,29.2533,-90.6633,-9999.0,9.07,1111122 
LUMCON,ioos:station:LUMCON:101:1,2011-05-07T06:00:00Z,29.2533,-90.6633,-9999.0,9.07,1111122 
LUMCON,ioos:station:LUMCON:101:1,2011-05-07T07:00:00Z,29.2533,-90.6633,-9999.0,9.06,1111122 
LUMCON,ioos:station:LUMCON:101:1,2011-05-07T08:00:00Z,29.2533,-90.6633,-9999.0,9.03,1111122 
LUMCON,ioos:station:LUMCON:101:1,2011-05-07T09:00:00Z,29.2533,-90.6633,-9999.0,8.99,1111122 
LUMCON,ioos:station:LUMCON:101:1,2011-05-07T10:00:00Z,29.2533,-90.6633,-9999.0,8.96,1111122 
LUMCON,ioos:station:LUMCON:101:1,2011-05-07T11:00:00Z,29.2533,-90.6633,-9999.0,8.88,1111122 
LUMCON,ioos:station:LUMCON:101:1,2011-05-07T12:00:00Z,29.2533,-90.6633,-9999.0,8.44,1111122 
LUMCON,ioos:station:LUMCON:101:1,2011-05-07T13:00:00Z,29.2533,-90.6633,-9999.0,8.88,1111122 
LUMCON,ioos:station:LUMCON:101:1,2011-05-07T14:00:00Z,29.2533,-90.6633,-9999.0,9.22,1111122 
LUMCON,ioos:station:LUMCON:101:1,2011-05-07T15:00:00Z,29.2533,-90.6633,-9999.0,9.01,1111122 
LUMCON,ioos:station:LUMCON:101:1,2011-05-07T16:00:00Z,29.2533,-90.6633,-9999.0,9.04,1111122 
LUMCON,ioos:station:LUMCON:101:1,2011-05-07T17:00:00Z,29.2533,-90.6633,-9999.0,9.24,1111122 
LUMCON,ioos:station:LUMCON:101:1,2011-05-07T18:00:00Z,29.2533,-90.6633,-9999.0,9.32,1111122 
LUMCON,ioos:station:LUMCON:101:1,2011-05-07T19:00:00Z,29.2533,-90.6633,-9999.0,9.23,1111122 
LUMCON,ioos:station:LUMCON:101:1,2011-05-07T20:00:00Z,29.2533,-90.6633,-9999.0,9.18,1111122 
LUMCON,ioos:station:LUMCON:101:1,2011-05-07T21:00:00Z,29.2533,-90.6633,-9999.0,9.16,1111122 
LUMCON,ioos:station:LUMCON:101:1,2011-05-07T22:00:00Z,29.2533,-90.6633,-9999.0,9.13,1111122 
LUMCON,ioos:station:LUMCON:101:1,2011-05-07T23:00:00Z,29.2533,-90.6633,-9999.0,9.17,1111122 
LUMCON,ioos:station:LUMCON:101:1,2011-05-07T24:00:00Z,29.2533,-90.6633,-9999.0,9.2,1111122 
LUMCON,ioos:station:LUMCON:101:1,2011-05-08T01:00:00Z,29.2533,-90.6633,-9999.0,9.22,1111122 
LUMCON,ioos:station:LUMCON:101:1,2011-05-08T02:00:00Z,29.2533,-90.6633,-9999.0,9.11,1111122 
LUMCON,ioos:station:LUMCON:101:1,2011-05-08T03:00:00Z,29.2533,-90.6633,-9999.0,9.0,1111122 
LUMCON,ioos:station:LUMCON:101:1,2011-05-08T04:00:00Z,29.2533,-90.6633,-9999.0,9.12,1111122 
LUMCON,ioos:station:LUMCON:101:1,2011-05-08T05:00:00Z,29.2533,-90.6633,-9999.0,9.15,1111122 
LUMCON,ioos:station:LUMCON:101:1,2011-05-08T06:00:00Z,29.2533,-90.6633,-9999.0,9.11,1111122 
LUMCON,ioos:station:LUMCON:101:1,2011-05-08T07:00:00Z,29.2533,-90.6633,-9999.0,9.08,1111122 
LUMCON,ioos:station:LUMCON:101:1,2011-05-08T08:00:00Z,29.2533,-90.6633,-9999.0,9.0,1111122 
LUMCON,ioos:station:LUMCON:101:1,2011-05-08T09:00:00Z,29.2533,-90.6633,-9999.0,8.92,1111122 
LUMCON,ioos:station:LUMCON:101:1,2011-05-08T10:00:00Z,29.2533,-90.6633,-9999.0,8.92,1111122 
LUMCON,ioos:station:LUMCON:101:1,2011-05-08T11:00:00Z,29.2533,-90.6633,-9999.0,8.8,1111122 
LUMCON,ioos:station:LUMCON:101:1,2011-05-08T12:00:00Z,29.2533,-90.6633,-9999.0,8.29,1111122 
LUMCON,ioos:station:LUMCON:101:1,2011-05-08T13:00:00Z,29.2533,-90.6633,-9999.0,8.31,1111122 
LUMCON,ioos:station:LUMCON:101:1,2011-05-08T14:00:00Z,29.2533,-90.6633,-9999.0,8.55,1111122 
LUMCON,ioos:station:LUMCON:101:1,2011-05-08T15:00:00Z,29.2533,-90.6633,-9999.0,8.46,1111122 
LUMCON,ioos:station:LUMCON:101:1,2011-05-08T16:00:00Z,29.2533,-90.6633,-9999.0,8.47,1111122 
LUMCON,ioos:station:LUMCON:101:1,2011-05-08T17:00:00Z,29.2533,-90.6633,-9999.0,8.54,1111122 
LUMCON,ioos:station:LUMCON:101:1,2011-05-08T18:00:00Z,29.2533,-90.6633,-9999.0,8.65,1111122 
LUMCON,ioos:station:LUMCON:101:1,2011-05-08T19:00:00Z,29.2533,-90.6633,-9999.0,8.62,1111122 
LUMCON,ioos:station:LUMCON:101:1,2011-05-08T20:00:00Z,29.2533,-90.6633,-9999.0,8.55,1111122 
LUMCON,ioos:station:LUMCON:101:1,2011-05-08T21:00:00Z,29.2533,-90.6633,-9999.0,8.43,1111122 
LUMCON,ioos:station:LUMCON:101:1,2011-05-08T22:00:00Z,29.2533,-90.6633,-9999.0,8.36,1111122 
LUMCON,ioos:station:LUMCON:101:1,2011-05-08T23:00:00Z,29.2533,-90.6633,-9999.0,8.16,1111122 
LUMCON,ioos:station:LUMCON:101:1,2011-05-08T24:00:00Z,29.2533,-90.6633,-9999.0,8.18,1111122 
LUMCON,ioos:station:LUMCON:101:1,2011-05-09T01:00:00Z,29.2533,-90.6633,-9999.0,8.36,1111122 
LUMCON,ioos:station:LUMCON:101:1,2011-05-09T02:00:00Z,29.2533,-90.6633,-9999.0,8.47,1111122 
LUMCON,ioos:station:LUMCON:101:1,2011-05-09T03:00:00Z,29.2533,-90.6633,-9999.0,8.44,1111122 
LUMCON,ioos:station:LUMCON:101:1,2011-05-09T04:00:00Z,29.2533,-90.6633,-9999.0,8.37,1111122 
LUMCON,ioos:station:LUMCON:101:1,2011-05-09T05:00:00Z,29.2533,-90.6633,-9999.0,8.49,1111122 
LUMCON,ioos:station:LUMCON:101:1,2011-05-09T06:00:00Z,29.2533,-90.6633,-9999.0,8.57,1111122 
LUMCON,ioos:station:LUMCON:101:1,2011-05-09T07:00:00Z,29.2533,-90.6633,-9999.0,8.63,1111122 
LUMCON,ioos:station:LUMCON:101:1,2011-05-09T08:00:00Z,29.2533,-90.6633,-9999.0,8.64,1111122 
LUMCON,ioos:station:LUMCON:101:1,2011-05-09T09:00:00Z,29.2533,-90.6633,-9999.0,8.61,1111122 
LUMCON,ioos:station:LUMCON:101:1,2011-05-09T10:00:00Z,29.2533,-90.6633,-9999.0,8.57,1111122 
LUMCON,ioos:station:LUMCON:101:1,2011-05-09T11:00:00Z,29.2533,-90.6633,-9999.0,8.54,1111122 
LUMCON,ioos:station:LUMCON:101:1,2011-05-09T12:00:00Z,29.2533,-90.6633,-9999.0,8.17,1111122 
LUMCON,ioos:station:LUMCON:101:1,2011-05-09T13:00:00Z,29.2533,-90.6633,-9999.0,7.7,1111122 
LUMCON,ioos:station:LUMCON:101:1,2011-05-09T14:00:00Z,29.2533,-90.6633,-9999.0,8.36,1111122 
LUMCON,ioos:station:LUMCON:101:1,2011-05-09T15:00:00Z,29.2533,-90.6633,-9999.0,8.76,1111122 
LUMCON,ioos:station:LUMCON:101:1,2011-05-09T16:00:00Z,29.2533,-90.6633,-9999.0,8.83,1111122 
LUMCON,ioos:station:LUMCON:101:1,2011-05-09T17:00:00Z,29.2533,-90.6633,-9999.0,8.88,1111122 
LUMCON,ioos:station:LUMCON:101:1,2011-05-09T18:00:00Z,29.2533,-90.6633,-9999.0,8.92,1111122 
LUMCON,ioos:station:LUMCON:101:1,2011-05-09T19:00:00Z,29.2533,-90.6633,-9999.0,8.9,1111122 
LUMCON,ioos:station:LUMCON:101:1,2011-05-09T20:00:00Z,29.2533,-90.6633,-9999.0,8.82,1111122 
LUMCON,ioos:station:LUMCON:101:1,2011-05-09T21:00:00Z,29.2533,-90.6633,-9999.0,8.77,1111122 
LUMCON,ioos:station:LUMCON:101:1,2011-05-09T22:00:00Z,29.2533,-90.6633,-9999.0,8.69,1111122 
LUMCON,ioos:station:LUMCON:101:1,2011-05-09T23:00:00Z,29.2533,-90.6633,-9999.0,8.65,1111122 
LUMCON,ioos:station:LUMCON:101:1,2011-05-09T24:00:00Z,29.2533,-90.6633,-9999.0,8.69,1111122 
LUMCON,ioos:station:LUMCON:101:1,2011-05-10T01:00:00Z,29.2533,-90.6633,-9999.0,8.7,1111122 
LUMCON,ioos:station:LUMCON:101:1,2011-05-10T02:00:00Z,29.2533,-90.6633,-9999.0,8.69,1111122 
LUMCON,ioos:station:LUMCON:101:1,2011-05-10T03:00:00Z,29.2533,-90.6633,-9999.0,8.78,1111122 
LUMCON,ioos:station:LUMCON:101:1,2011-05-10T04:00:00Z,29.2533,-90.6633,-9999.0,8.82,1111122 
LUMCON,ioos:station:LUMCON:101:1,2011-05-10T05:00:00Z,29.2533,-90.6633,-9999.0,8.83,1111122 
LUMCON,ioos:station:LUMCON:101:1,2011-05-10T06:00:00Z,29.2533,-90.6633,-9999.0,8.82,1111122 
LUMCON,ioos:station:LUMCON:101:1,2011-05-10T07:00:00Z,29.2533,-90.6633,-9999.0,8.67,1111122 
LUMCON,ioos:station:LUMCON:101:1,2011-05-10T08:00:00Z,29.2533,-90.6633,-9999.0,8.55,1111122 
LUMCON,ioos:station:LUMCON:101:1,2011-05-10T09:00:00Z,29.2533,-90.6633,-9999.0,8.49,1111122 
LUMCON,ioos:station:LUMCON:101:1,2011-05-10T10:00:00Z,29.2533,-90.6633,-9999.0,8.46,1111122 
LUMCON,ioos:station:LUMCON:101:1,2011-05-10T11:00:00Z,29.2533,-90.6633,-9999.0,8.48,1111122 
LUMCON,ioos:station:LUMCON:101:1,2011-05-10T12:00:00Z,29.2533,-90.6633,-9999.0,8.45,1111122 
LUMCON,ioos:station:LUMCON:101:1,2011-05-10T13:00:00Z,29.2533,-90.6633,-9999.0,8.33,1111122 
LUMCON,ioos:station:LUMCON:101:1,2011-05-10T14:00:00Z,29.2533,-90.6633,-9999.0,8.99,1111122 
LUMCON,ioos:station:LUMCON:101:1,2011-05-10T15:00:00Z,29.2533,-90.6633,-9999.0,9.87,1111122 
LUMCON,ioos:station:LUMCON:101:1,2011-05-10T16:00:00Z,29.2533,-90.6633,-9999.0,9.95,1111122 
LUMCON,ioos:station:LUMCON:101:1,2011-05-10T17:00:00Z,29.2533,-90.6633,-9999.0,9.83,1111122 
LUMCON,ioos:station:LUMCON:101:1,2011-05-10T18:00:00Z,29.2533,-90.6633,-9999.0,9.79,1111122 
LUMCON,ioos:station:LUMCON:101:1,2011-05-10T19:00:00Z,29.2533,-90.6633,-9999.0,9.82,1111122 
LUMCON,ioos:station:LUMCON:101:1,2011-05-10T20:00:00Z,29.2533,-90.6633,-9999.0,9.89,1111122 
LUMCON,ioos:station:LUMCON:101:1,2011-05-13T15:00:00Z,29.2533,-90.6633,0.0,12.43,1111122 
LUMCON,ioos:station:LUMCON:101:1,2011-05-13T17:00:00Z,29.2533,-90.6633,0.0,12.6,1111122 
LUMCON,ioos:station:LUMCON:101:1,2011-05-13T19:00:00Z,29.2533,-90.6633,0.0,13.17,1111122 
LUMCON,ioos:station:LUMCON:101:1,2011-05-13T20:00:00Z,29.2533,-90.6633,0.0,13.22,1111122 
LUMCON,ioos:station:LUMCON:101:1,2011-05-13T21:00:00Z,29.2533,-90.6633,0.0,12.59,1111122 
LUMCON,ioos:station:LUMCON:101:1,2011-05-13T22:00:00Z,29.2533,-90.6633,0.0,11.73,1111122 
LUMCON,ioos:station:LUMCON:101:1,2011-05-13T23:00:00Z,29.2533,-90.6633,0.0,10.47,1111122 
LUMCON,ioos:station:LUMCON:101:1,2011-05-14T01:00:00Z,29.2533,-90.6633,0.0,10.22,1111122 
LUMCON,ioos:station:LUMCON:101:1,2011-05-14T02:00:00Z,29.2533,-90.6633,0.0,11.63,1111122 
LUMCON,ioos:station:LUMCON:101:1,2011-05-14T03:00:00Z,29.2533,-90.6633,0.0,11.38,1111122 
LUMCON,ioos:station:LUMCON:101:1,2011-05-14T04:00:00Z,29.2533,-90.6633,0.0,11.55,1111122 
LUMCON,ioos:station:LUMCON:101:1,2011-05-14T05:00:00Z,29.2533,-90.6633,0.0,9.16,1111122 
LUMCON,ioos:station:LUMCON:101:1,2011-05-14T06:00:00Z,29.2533,-90.6633,0.0,9.79,1111122 
LUMCON,ioos:station:LUMCON:101:1,2011-05-14T07:00:00Z,29.2533,-90.6633,0.0,9.7,1111122 
LUMCON,ioos:station:LUMCON:101:1,2011-05-14T08:00:00Z,29.2533,-90.6633,0.0,7.6,1111122 
LUMCON,ioos:station:LUMCON:101:1,2011-05-14T09:00:00Z,29.2533,-90.6633,0.0,8.35,1111122 
LUMCON,ioos:station:LUMCON:101:1,2011-05-14T10:00:00Z,29.2533,-90.6633,0.0,8.53,1111122 
LUMCON,ioos:station:LUMCON:101:1,2011-05-14T11:00:00Z,29.2533,-90.6633,0.0,8.49,1111122 
LUMCON,ioos:station:LUMCON:101:1,2011-05-14T13:00:00Z,29.2533,-90.6633,0.0,7.91,1111122 
LUMCON,ioos:station:LUMCON:101:1,2011-05-14T14:00:00Z,29.2533,-90.6633,0.0,7.58,1111122 
LUMCON,ioos:station:LUMCON:101:1,2011-05-14T15:00:00Z,29.2533,-90.6633,0.0,7.44,1111122 